This demonstration page uses our WeatherBlox Daily Observations layout. Learn more.

Left ArrowRight Arrow

Hourly Observations for January 17, 2019

Temp ( °F °C ) Dew Point ( °F °C ) Humidity (%) Winds ( mph kmh ) Pressure ( in mb ) Visibility ( mi km ) Precip ( " mm )
12:51 am 00:51 Clear 40 4.4 37 2.8 89 89 ESE 3 6 30.19 1022 10 16 N/A
1:51 am 01:51 Clear 38 3.3 36 2.2 93 93 N N/A 30.17 1022 10 16 N/A
2:51 am 02:51 Clear 36 2.2 35 1.7 97 97 N N/A 30.18 1022 10 16 N/A
3:51 am 03:51 Clear 36 2.2 35 1.7 97 97 NW 3 6 30.17 1022 10 16 N/A
4:51 am 04:51 Clear 36 2.2 34 1.1 93 93 NNW 3 6 30.16 1021 10 16 N/A
5:51 am 05:51 Clear 35 1.7 34 1.1 96 96 N N/A 30.19 1023 10 16 N/A
6:51 am 06:51 Clear 37 2.8 35 1.7 93 93 SSE 7 11 30.20 1023 10 16 N/A
7:51 am 07:51 Sunny 38 3.3 35 1.7 89 89 SSE 9 15 30.21 1023 10 16 N/A
8:51 am 08:51 Sunny 48 8.9 35 1.7 61 61 E 9 15 30.20 1023 10 16 N/A
9:51 am 09:51 Sunny 50 10 38 3.3 63 63 VRB 3 6 30.21 1023 10 16 N/A
10:51 am 10:51 Sunny 55 12.8 38 3.3 53 53 NW 8 13 30.22 1023 10 16 N/A
11:51 am 11:51 Sunny 57 13.9 37 2.8 47 47 VRB 7 11 30.19 1023 10 16 N/A
12:51 pm 12:51 Sunny 61 16.1 38 3.3 43 43 SSE 5 7 30.12 1020 10 16 N/A
1:51 pm 13:51 Sunny 63 17.2 35 1.7 35 35 SE 7 11 30.08 1019 10 16 N/A
2:51 pm 14:51 Sunny 64 17.8 35 1.7 34 34 S 8 13 30.07 1018 10 16 N/A
3:51 pm 15:51 Sunny 63 17.2 37 2.8 38 38 VRB 3 6 30.08 1019 10 16 N/A
4:51 pm 16:51 Sunny 64 17.8 35 1.7 34 34 W 5 7 30.08 1019 10 16 N/A
5:51 pm 17:51 Clear 57 13.9 38 3.3 49 49 W 5 7 30.09 1019 10 16 N/A
6:51 pm 18:51 Clear 54 12.2 38 3.3 55 55 N N/A 30.10 1019 10 16 N/A
7:51 pm 19:51 Clear 50 10 40 4.4 68 68 NNW 7 11 30.11 1020 10 16 N/A
8:51 pm 20:51 Clear 49 9.4 40 4.4 71 71 WNW 7 11 30.10 1019 10 16 N/A
9:51 pm 21:51 Clear 50 10 40 4.4 68 68 WSW 7 11 30.10 1019 10 16 N/A
10:51 pm 22:51 Clear 52 11.1 39 3.9 61 61 NW 8 13 30.09 1019 10 16 N/A
11:51 pm 23:51 Mostly Clear 49 9.4 40 4.4 71 71 N N/A 30.10 1019 10 16 N/A

Powered by AerisWeather